TimeEDT,TemperatureF,Dew PointF,Humidity,Sea Level PressureIn,VisibilityMPH,Wind Direction,Wind SpeedMPH,Gust SpeedMPH,PrecipitationIn,Events,Conditions,WindDirDegrees,DateUTC
12:15 AM,57.2,56.7,98,29.91,10.0,Calm,Calm,-,0.01,Rain,Light Rain,0,2013-05-07 04:15:00
12:35 AM,57.2,56.8,99,29.91,10.0,Calm,Calm,-,0.01,,Overcast,0,2013-05-07 04:35:00
12:55 AM,56.5,56.3,99,29.91,10.0,Calm,Calm,-,0.01,,Mostly Cloudy,0,2013-05-07 04:55:00
1:15 AM,56.5,56.3,99,29.90,10.0,Calm,Calm,-,N/A,,Mostly Cloudy,0,2013-05-07 05:15:00
1:35 AM,56.3,55.9,99,29.90,10.0,Calm,Calm,-,N/A,,Overcast,0,2013-05-07 05:35:00
1:55 AM,55.9,55.8,99,29.89,10.0,Calm,Calm,-,N/A,,Overcast,0,2013-05-07 05:55:00
2:15 AM,55.9,55.9,100,29.88,10.0,Calm,Calm,-,N/A,,Mostly Cloudy,0,2013-05-07 06:15:00
2:35 AM,56.3,56.3,100,29.88,10.0,Calm,Calm,-,N/A,,Overcast,0,2013-05-07 06:35:00
2:55 AM,56.5,56.5,100,29.88,7.0,Calm,Calm,-,N/A,,Overcast,0,2013-05-07 06:55:00
3:15 AM,56.7,56.7,100,29.88,7.0,Calm,Calm,-,N/A,,Overcast,0,2013-05-07 07:15:00
3:35 AM,56.5,56.5,100,29.88,7.0,Calm,Calm,-,N/A,,Overcast,0,2013-05-07 07:35:00
4:15 AM,55.8,55.8,100,29.88,5.0,Calm,Calm,-,N/A,,Mostly Cloudy,0,2013-05-07 08:15:00
4:35 AM,55.4,55.4,100,29.88,5.0,Calm,Calm,-,N/A,,Mostly Cloudy,0,2013-05-07 08:35:00
4:55 AM,55.4,55.4,100,29.87,5.0,Calm,Calm,-,N/A,,Overcast,0,2013-05-07 08:55:00
5:15 AM,55.4,55.4,100,29.87,7.0,Calm,Calm,-,N/A,,Mostly Cloudy,0,2013-05-07 09:15:00
5:35 AM,54.3,54.3,100,29.87,4.0,Calm,Calm,-,N/A,,Scattered Clouds,0,2013-05-07 09:35:00
5:55 AM,52.9,52.9,100,29.87,2.5,Calm,Calm,-,N/A,,Mostly Cloudy,0,2013-05-07 09:55:00
6:15 AM,54.9,54.9,100,29.88,4.0,Calm,Calm,-,N/A,,Overcast,0,2013-05-07 10:15:00
6:35 AM,55.4,55.4,100,29.88,1.0,Calm,Calm,-,N/A,,Overcast,0,2013-05-07 10:35:00
6:55 AM,55.6,55.6,100,29.88,0.2,Calm,Calm,-,N/A,Fog,Fog,0,2013-05-07 10:55:00
7:15 AM,55.9,55.9,100,29.88,0.2,Calm,Calm,-,N/A,Fog,Fog,0,2013-05-07 11:15:00
7:35 AM,56.3,56.3,100,29.88,0.5,Calm,Calm,-,N/A,Fog,Fog,0,2013-05-07 11:35:00
7:55 AM,56.3,56.3,100,29.88,2.0,Calm,Calm,-,N/A,,Overcast,0,2013-05-07 11:55:00
8:15 AM,56.3,56.3,100,29.89,1.5,Calm,Calm,-,N/A,,Overcast,0,2013-05-07 12:15:00
8:35 AM,56.3,56.3,100,29.89,4.0,Calm,Calm,-,N/A,,Overcast,0,2013-05-07 12:35:00
8:55 AM,56.7,56.7,100,29.90,7.0,Calm,Calm,-,N/A,,Overcast,0,2013-05-07 12:55:00
9:15 AM,57.4,57.2,99,29.91,10.0,Calm,Calm,-,N/A,,Overcast,0,2013-05-07 13:15:00
9:35 AM,58.5,56.8,94,29.91,7.0,Calm,Calm,-,N/A,,Mostly Cloudy,0,2013-05-07 13:35:00
9:55 AM,59.0,55.9,90,29.92,10.0,Calm,Calm,-,N/A,,Mostly Cloudy,0,2013-05-07 13:55:00
10:15 AM,59.9,55.4,85,29.92,10.0,Calm,Calm,-,N/A,,Overcast,0,2013-05-07 14:15:00
10:35 AM,60.6,56.1,85,29.91,10.0,Calm,Calm,-,N/A,,Mostly Cloudy,0,2013-05-07 14:35:00
10:55 AM,60.8,55.9,84,29.91,10.0,Calm,Calm,-,N/A,,Scattered Clouds,0,2013-05-07 14:55:00
11:15 AM,61.5,55.6,81,29.91,10.0,Calm,Calm,-,N/A,,Clear,0,2013-05-07 15:15:00
11:35 AM,63.0,56.5,79,29.91,10.0,SSW,4.6,-,N/A,,Scattered Clouds,200,2013-05-07 15:35:00
12:15 PM,63.5,56.3,77,29.91,10.0,Calm,Calm,-,N/A,,Scattered Clouds,0,2013-05-07 16:15:00
12:35 PM,65.1,55.6,71,29.90,10.0,South,3.5,-,N/A,,Scattered Clouds,190,2013-05-07 16:35:00
12:55 PM,65.5,55.8,71,29.89,10.0,Calm,Calm,-,N/A,,Scattered Clouds,0,2013-05-07 16:55:00
1:15 PM,65.7,55.4,69,29.88,10.0,WSW,3.5,-,N/A,,Scattered Clouds,240,2013-05-07 17:15:00
1:35 PM,67.3,54.0,62,29.88,10.0,South,3.5,-,N/A,,Mostly Cloudy,190,2013-05-07 17:35:00
1:55 PM,67.5,52.3,58,29.88,10.0,SSW,6.9,-,N/A,,Scattered Clouds,200,2013-05-07 17:55:00
2:15 PM,66.6,53.6,63,29.88,10.0,South,5.8,-,N/A,,Scattered Clouds,170,2013-05-07 18:15:00
2:35 PM,66.4,53.8,64,29.88,10.0,SSW,3.5,-,N/A,,Mostly Cloudy,210,2013-05-07 18:35:00
2:55 PM,67.3,52.0,58,29.87,10.0,SSW,4.6,-,N/A,,Overcast,200,2013-05-07 18:55:00
3:15 PM,62.2,51.6,68,29.88,10.0,SSE,4.6,-,N/A,Rain,Light Rain,150,2013-05-07 19:15:00
3:35 PM,59.7,54.1,82,29.88,10.0,Calm,Calm,-,0.01,Rain,Light Rain,0,2013-05-07 19:35:00
3:55 PM,59.7,54.7,83,29.87,10.0,Calm,Calm,-,0.01,Rain,Light Rain,0,2013-05-07 19:55:00
4:15 PM,65.8,51.3,59,29.86,10.0,South,4.6,-,N/A,,Scattered Clouds,170,2013-05-07 20:15:00
4:35 PM,66.0,51.4,59,29.87,10.0,Calm,Calm,-,N/A,,Mostly Cloudy,0,2013-05-07 20:35:00
4:55 PM,66.2,52.2,61,29.88,10.0,NW,3.5,-,N/A,,Mostly Cloudy,320,2013-05-07 20:55:00
5:15 PM,62.1,51.8,69,29.88,10.0,NNW,4.6,-,N/A,,Overcast,330,2013-05-07 21:15:00
5:55 PM,58.1,52.0,80,29.90,10.0,NW,3.5,-,N/A,Rain,Light Rain,320,2013-05-07 21:55:00
6:15 PM,57.2,52.0,83,29.90,7.0,NNW,5.8,-,N/A,Rain,Light Rain,330,2013-05-07 22:15:00
6:35 PM,56.3,51.6,84,29.89,7.0,NNW,4.6,-,0.03,Rain,Light Rain,340,2013-05-07 22:35:00
6:55 PM,57.2,52.7,85,29.91,10.0,SSW,3.5,-,0.03,,Light Drizzle,200,2013-05-07 22:55:00
7:15 PM,56.5,54.1,92,29.92,10.0,South,5.8,-,N/A,,Overcast,190,2013-05-07 23:15:00
7:55 PM,55.4,53.8,94,29.91,10.0,Calm,Calm,-,N/A,Rain,Light Rain,0,2013-05-07 23:55:00
8:15 PM,54.9,53.8,96,29.91,10.0,Calm,Calm,-,N/A,,Overcast,0,2013-05-08 00:15:00
8:35 PM,54.7,53.8,97,29.92,10.0,Calm,Calm,-,N/A,,Light Drizzle,0,2013-05-08 00:35:00
8:55 PM,54.9,54.0,97,29.92,10.0,Calm,Calm,-,0.01,,Overcast,0,2013-05-08 00:55:00
9:15 PM,54.7,54.3,99,29.92,7.0,Calm,Calm,-,N/A,,Overcast,0,2013-05-08 01:15:00
9:35 PM,54.1,53.8,99,29.92,7.0,Calm,Calm,-,N/A,,Overcast,0,2013-05-08 01:35:00
9:55 PM,53.6,53.2,99,29.94,7.0,Calm,Calm,-,N/A,,Overcast,0,2013-05-08 01:55:00
10:15 PM,54.3,54.0,99,29.95,10.0,Calm,Calm,-,N/A,,Overcast,0,2013-05-08 02:15:00
10:35 PM,54.1,53.8,99,29.96,10.0,Calm,Calm,-,N/A,,Overcast,0,2013-05-08 02:35:00
10:55 PM,53.8,53.6,99,29.96,10.0,Calm,Calm,-,N/A,,Overcast,0,2013-05-08 02:55:00
11:15 PM,54.0,53.8,99,29.96,10.0,Calm,Calm,-,N/A,,Overcast,0,2013-05-08 03:15:00
11:35 PM,53.6,53.6,100,29.96,10.0,Calm,Calm,-,N/A,,Overcast,0,2013-05-08 03:35:00
11:55 PM,53.1,52.9,99,29.95,7.0,Calm,Calm,-,N/A,,Mostly Cloudy,0,2013-05-08 03:55:00